ARG1407 SANT-SASA

Flight info

Callsign ARG1407
Flight time 0h 26m
Altitude 16000
Route ILPAR4A ILPAR ILPAR2M
Aircraft B738/M-SDE2E3FGHIRWXY/LB1

Departure

Time 2026-05-04 14:38
Airport Teniente Benjamín Matienzo International Airport (SANT)

Arrival

Time 2026-05-04 15:04
Airport Martín Miguel de Güemes International Airport (SASA)
Time Latitude Longitude Altitude Speed Heading
2026-05-04 14:17 -26.83568 -65.10758 1487 ft 0 kts 281°
2026-05-04 14:28 -26.83568 -65.10757 1487 ft 2 kts 281°
2026-05-04 14:28 -26.83571 -65.10740 1486 ft 2 kts 280°
2026-05-04 14:28 -26.83574 -65.10723 1486 ft 2 kts 281°
2026-05-04 14:28 -26.83576 -65.10710 1486 ft 0 kts 281°
2026-05-04 14:29 -26.83562 -65.10680 1487 ft 0 kts 194°
2026-05-04 14:29 -26.83554 -65.10679 1487 ft 0 kts 189°
2026-05-04 14:31 -26.83557 -65.10680 1487 ft 1 kts 189°
2026-05-04 14:31 -26.83622 -65.10692 1484 ft 7 kts 190°
2026-05-04 14:32 -26.83755 -65.10714 1481 ft 10 kts 177°
2026-05-04 14:32 -26.83824 -65.10693 1480 ft 10 kts 161°
2026-05-04 14:32 -26.83894 -65.10666 1478 ft 11 kts 160°
2026-05-04 14:32 -26.83970 -65.10635 1477 ft 11 kts 160°
2026-05-04 14:33 -26.84047 -65.10603 1475 ft 12 kts 159°
2026-05-04 14:33 -26.84130 -65.10568 1474 ft 12 kts 160°
2026-05-04 14:33 -26.84218 -65.10538 1472 ft 13 kts 169°
2026-05-04 14:33 -26.84310 -65.10535 1470 ft 13 kts 182°
2026-05-04 14:34 -26.84409 -65.10548 1468 ft 15 kts 189°
2026-05-04 14:34 -26.84515 -65.10568 1466 ft 15 kts 190°
2026-05-04 14:34 -26.84626 -65.10590 1464 ft 16 kts 190°
2026-05-04 14:34 -26.84742 -65.10613 1462 ft 17 kts 190°
2026-05-04 14:35 -26.84864 -65.10635 1459 ft 17 kts 189°
2026-05-04 14:35 -26.84982 -65.10658 1457 ft 12 kts 190°
2026-05-04 14:35 -26.85063 -65.10674 1455 ft 11 kts 189°
2026-05-04 14:35 -26.85148 -65.10689 1453 ft 12 kts 190°
2026-05-04 14:36 -26.85228 -65.10727 1451 ft 12 kts 218°
2026-05-04 14:36 -26.85294 -65.10767 1449 ft 7 kts 167°
2026-05-04 14:36 -26.85335 -65.10749 1448 ft 5 kts 117°
2026-05-04 14:36 -26.85325 -65.10725 1449 ft 3 kts 24°
2026-05-04 14:37 -26.85317 -65.10723 1449 ft 0 kts
2026-05-04 14:37 -26.85282 -65.10716 1450 ft 16 kts
2026-05-04 14:37 -26.84894 -65.10641 1459 ft 94 kts
2026-05-04 14:37 -26.84016 -65.10471 1477 ft 158 kts 10°
2026-05-04 14:38 -26.82859 -65.10226 1955 ft 169 kts
2026-05-04 14:38 -26.81741 -65.10059 2794 ft 165 kts
2026-05-04 14:38 -26.80540 -65.09906 3300 ft 182 kts
2026-05-04 14:38 -26.79249 -65.09757 3939 ft 192 kts
2026-05-04 14:39 -26.77916 -65.10201 4399 ft 216 kts 331°
2026-05-04 14:39 -26.76560 -65.10995 5161 ft 223 kts 343°
2026-05-04 14:39 -26.74966 -65.11030 5723 ft 241 kts 15°
2026-05-04 14:40 -26.71487 -65.10297 7190 ft 267 kts
2026-05-04 14:40 -26.69649 -65.10281 8113 ft 270 kts 359°
2026-05-04 14:40 -26.67770 -65.10334 8997 ft 273 kts 359°
2026-05-04 14:40 -26.65869 -65.10389 9822 ft 277 kts 359°
2026-05-04 14:41 -26.63891 -65.10430 10498 ft 289 kts 359°
2026-05-04 14:41 -26.61822 -65.10460 11063 ft 304 kts 360°
2026-05-04 14:41 -26.57342 -65.10490 11910 ft 338 kts
2026-05-04 14:42 -26.52594 -65.10414 13381 ft 346 kts
2026-05-04 14:42 -26.50196 -65.10370 14127 ft 352 kts
2026-05-04 14:42 -26.47693 -65.10330 14812 ft 358 kts
2026-05-04 14:43 -26.45168 -65.10294 15539 ft 364 kts 360°
2026-05-04 14:43 -26.42660 -65.10259 16242 ft 369 kts 359°
2026-05-04 14:43 -26.40092 -65.10224 17122 ft 369 kts 359°
2026-05-04 14:43 -26.37506 -65.10188 17999 ft 368 kts 359°
2026-05-04 14:44 -26.34954 -65.10152 18839 ft 368 kts 359°
2026-05-04 14:44 -26.32404 -65.10116 19612 ft 369 kts 358°
2026-05-04 14:44 -26.29821 -65.10081 19924 ft 375 kts 358°
2026-05-04 14:44 -26.27160 -65.10045 20002 ft 382 kts 358°
2026-05-04 14:45 -26.24534 -65.10008 19991 ft 378 kts 358°
2026-05-04 14:45 -26.21917 -65.09968 20015 ft 370 kts 358°
2026-05-04 14:45 -26.19358 -65.09931 20011 ft 367 kts 358°
2026-05-04 14:45 -26.16794 -65.09894 19995 ft 366 kts 358°
2026-05-04 14:46 -26.14245 -65.09859 20035 ft 368 kts 358°
2026-05-04 14:46 -26.11673 -65.09823 20011 ft 370 kts 358°
2026-05-04 14:46 -26.09076 -65.09787 19994 ft 369 kts 358°
2026-05-04 14:46 -26.06534 -65.09752 20001 ft 368 kts 358°
2026-05-04 14:47 -26.03958 -65.09717 20014 ft 369 kts 358°
2026-05-04 14:47 -26.01376 -65.09682 20019 ft 369 kts 358°
2026-05-04 14:47 -25.98820 -65.09649 20023 ft 369 kts 358°
2026-05-04 14:47 -25.96233 -65.09613 20032 ft 368 kts 358°
2026-05-04 14:48 -25.93691 -65.09578 20044 ft 369 kts 358°
2026-05-04 14:48 -25.91124 -65.09541 20017 ft 368 kts 358°
2026-05-04 14:48 -25.88530 -65.09502 20036 ft 368 kts 359°
2026-05-04 14:48 -25.85959 -65.09462 20024 ft 369 kts 358°
2026-05-04 14:49 -25.83413 -65.09424 20019 ft 368 kts 358°
2026-05-04 14:49 -25.80836 -65.09390 20022 ft 368 kts 357°
2026-05-04 14:49 -25.78258 -65.09363 20020 ft 368 kts 358°
2026-05-04 14:49 -25.75734 -65.09331 20026 ft 360 kts 358°
2026-05-04 14:50 -25.73247 -65.09316 20022 ft 348 kts 355°
2026-05-04 14:50 -25.70879 -65.09532 20029 ft 341 kts 346°
2026-05-04 14:50 -25.68586 -65.10258 19976 ft 345 kts 334°
2026-05-04 14:50 -25.66403 -65.11438 19736 ft 347 kts 328°
2026-05-04 14:51 -25.64354 -65.12742 19384 ft 338 kts 327°
2026-05-04 14:51 -25.62353 -65.14078 18683 ft 337 kts 326°
2026-05-04 14:51 -25.60369 -65.15421 18253 ft 328 kts 327°
2026-05-04 14:51 -25.58439 -65.16716 17969 ft 317 kts 326°
2026-05-04 14:52 -25.56552 -65.17971 17264 ft 320 kts 327°
2026-05-04 14:52 -25.54662 -65.19214 16953 ft 314 kts 327°
2026-05-04 14:52 -25.52756 -65.20459 16754 ft 320 kts 327°
2026-05-04 14:52 -25.50842 -65.21707 16469 ft 321 kts 327°
2026-05-04 14:53 -25.48913 -65.22963 15957 ft 323 kts 328°
2026-05-04 14:53 -25.46996 -65.24208 15552 ft 320 kts 328°
2026-05-04 14:53 -25.45077 -65.25456 15122 ft 319 kts 328°
2026-05-04 14:53 -25.43163 -65.26702 14635 ft 316 kts 328°
2026-05-04 14:54 -25.41292 -65.27921 14058 ft 314 kts 328°
2026-05-04 14:54 -25.39439 -65.29127 13755 ft 302 kts 328°
2026-05-04 14:54 -25.37629 -65.30304 13087 ft 304 kts 329°
2026-05-04 14:54 -25.35827 -65.31476 12665 ft 301 kts 329°
2026-05-04 14:55 -25.34035 -65.32640 12477 ft 294 kts 329°
2026-05-04 14:55 -25.32272 -65.33785 12248 ft 298 kts 329°
2026-05-04 14:55 -25.30460 -65.34962 11689 ft 302 kts 329°
2026-05-04 14:55 -25.28662 -65.36128 11392 ft 298 kts 329°
2026-05-04 14:56 -25.26882 -65.37283 10855 ft 300 kts 329°
2026-05-04 14:56 -25.25088 -65.38447 10343 ft 296 kts 329°
2026-05-04 14:56 -25.23346 -65.39577 10138 ft 281 kts 329°
2026-05-04 14:56 -25.21715 -65.40634 10035 ft 270 kts 329°
2026-05-04 14:57 -25.20090 -65.41687 9960 ft 268 kts 329°
2026-05-04 14:57 -25.18509 -65.42712 9912 ft 258 kts 329°
2026-05-04 14:57 -25.16990 -65.43695 9868 ft 246 kts 329°
2026-05-04 14:57 -25.15532 -65.44640 9759 ft 241 kts 329°
2026-05-04 14:58 -25.14121 -65.45558 9601 ft 229 kts 329°
2026-05-04 14:58 -25.12792 -65.46424 9450 ft 214 kts 329°
2026-05-04 14:58 -25.11546 -65.47235 9313 ft 201 kts 329°
2026-05-04 14:58 -25.10367 -65.48003 9145 ft 196 kts 329°
2026-05-04 14:59 -25.09184 -65.48774 8996 ft 193 kts 329°
2026-05-04 14:59 -25.08041 -65.49517 8886 ft 192 kts 329°
2026-05-04 14:59 -25.05635 -65.51080 8730 ft 208 kts 330°
2026-05-04 15:00 -25.04377 -65.51890 8520 ft 210 kts 332°
2026-05-04 15:00 -25.02979 -65.52340 8168 ft 209 kts 359°
2026-05-04 15:00 -25.01545 -65.52145 7732 ft 212 kts 11°
2026-05-04 15:01 -24.98623 -65.51457 6778 ft 216 kts 10°
2026-05-04 15:01 -24.97129 -65.51131 6272 ft 207 kts 10°
2026-05-04 15:01 -24.95729 -65.50825 5838 ft 195 kts 11°
2026-05-04 15:01 -24.94443 -65.50545 5517 ft 180 kts 11°
2026-05-04 15:02 -24.93235 -65.50281 5264 ft 162 kts 11°
2026-05-04 15:02 -24.92138 -65.50041 5037 ft 151 kts 11°
2026-05-04 15:02 -24.91111 -65.49805 4887 ft 150 kts 11°
2026-05-04 15:02 -24.90051 -65.49582 4665 ft 150 kts
2026-05-04 15:03 -24.88962 -65.49362 4472 ft 149 kts
2026-05-04 15:03 -24.87900 -65.49118 4283 ft 149 kts 10°
2026-05-04 15:03 -24.86836 -65.48896 4102 ft 145 kts 10°
2026-05-04 15:03 -24.85964 -65.48705 4075 ft 91 kts 12°
2026-05-04 15:04 -24.85429 -65.48588 4068 ft 62 kts 11°
2026-05-04 15:04 -24.85063 -65.48508 4061 ft 25 kts 11°
2026-05-04 15:04 -24.84869 -65.48467 4057 ft 31 kts 11°
2026-05-04 15:04 -24.84731 -65.48436 4055 ft 15 kts 11°
2026-05-04 15:05 -24.84695 -65.48411 4053 ft 6 kts 36°
2026-05-04 15:05 -24.84649 -65.48371 4050 ft 10 kts 43°
2026-05-04 15:05 -24.84605 -65.48309 4047 ft 10 kts 65°
2026-05-04 15:05 -24.84578 -65.48222 4044 ft 12 kts 71°
2026-05-04 15:06 -24.84548 -65.48122 4040 ft 14 kts 71°
2026-05-04 15:06 -24.84523 -65.48043 4037 ft 4 kts 71°
2026-05-04 15:06 -24.84510 -65.48000 4036 ft 6 kts 72°
2026-05-04 15:07 -24.84475 -65.47920 4032 ft 5 kts 68°
2026-05-04 15:07 -24.84468 -65.47899 4032 ft 0 kts 70°
2026-05-04 15:07 -24.84471 -65.47907 4032 ft 0 kts 70°